{"data":{"norad_id":41469,"intl_designator":"2016-027A","name":"IRNSS-1G","alt_names":[],"object_type":"PAYLOAD","status":"ACTIVE","operator":null,"country":"IND","launch_date":"2016-04-28","launch_site_code":"SRILR","launch_vehicle":null,"mission":null,"orbit_class":"UNKNOWN","rcs_meters":8.5592,"size_class":null,"mass_kg":null,"dimensions":null,"purposes":["comms","nav"],"wikipedia_slug":null,"has_3d_model":false,"image_url":null,"decayed_at":null,"tle_current":{"epoch":"2026-05-24T19:48:07.281792Z","epoch_age_seconds":93379,"freshness":"FRESH","line1":"1 41469U 16027A   26144.82508428 -.00000335  00000+0  00000+0 0  9994","line2":"2 41469   5.1402  98.0142 0007325 348.5460 222.3476  1.00277831 36946","mean_motion":1.00277831,"eccentricity":0.0007325,"inclination_deg":5.1402,"raan_deg":98.0142,"arg_perigee_deg":348.546,"mean_anomaly_deg":222.3476,"bstar":0,"rev_number":3694,"period_min":1436.0103181729,"perigee_km":35754.015708374,"apogee_km":35815.784557774,"semimajor_km":42163.037133074,"source":"CELESTRAK","updated_at":"2026-05-25T13:38:23.546204Z"}}}